Location: Austin
(30.3000°N, 97.7500°W)
Time: 04:10:24
(UTC-06:00)

SKYMED 2 - Pass Details

Date: 05 February 2026
Orbit: 622 x 624 km, 97.9° (Epoch: 15 February)

Event Time Altitude Azimuth Distance (km) Brightness Sun altitude
Rises 06:23:49 0° 186° (S) 2,886 7.1 -12.4°
Reaches altitude 10° 06:26:09 10° 196° (SSW) 1,983 6.1 -11.9°
Maximum altitude 06:30:04 34° 261° (W) 1,019 4.2 -11.0°
Drops below altitude 10° 06:34:02 10° 328° (NNW) 1,993 5.8 -10.2°
Sets 06:36:24 0° 337° (NNW) 2,902 6.7 -9.7°
